FW0954 Weather Reports


time (UTC)temp
C
wind
direction
speed
KPH
gust
KPH
rain 1hr
cm
rain 24hr
cm
rain mn
cm
humidity
%
barometer
mb
20260508164002 23 181 4.8 11.3 0.00 0.00 0.00 68 1013.7
20260508163502 23 167 4.8 11.3 0.00 0.00 0.00 69 1013.7
20260508163003 23 174 3.2 14.5 0.00 0.00 0.00 68 1013.7
20260508162502 23 195 3.2 14.5 0.00 0.00 0.00 69 1013.8
20260508162002 22 193 3.2 9.7 0.00 0.00 0.00 69 1013.8
20260508161502 22 173 3.2 8.0 0.00 0.00 0.00 70 1013.9
20260508161002 22 176 3.2 9.7 0.00 0.00 0.00 68 1014.0
20260508160502 22 189 3.2 12.9 0.00 0.00 0.00 69 1013.8
20260508160002 22 184 4.8 12.9 0.00 0.00 0.00 69 1013.9
20260508155503 22 174 3.2 16.1 0.00 0.00 0.00 70 1014.0
20260508155003 22 179 3.2 16.1 0.00 0.00 0.00 71 1014.2
20260508154002 21 185 4.8 12.9 0.00 0.00 0.00 71 1014.3
20260508152503 21 199 3.2 9.7 0.00 0.00 0.00 71 1014.5
20260508152002 21 189 3.2 11.3 0.00 0.00 0.00 70 1014.5
20260508151503 21 189 3.2 11.3 0.00 0.00 0.00 70 1014.4
20260508151002 21 194 3.2 11.3 0.00 0.00 0.00 70 1014.5
20260508150503 21 179 3.2 11.3 0.00 0.00 0.00 70 1014.5
20260508150003 21 164 1.6 8.0 0.00 0.00 0.00 72 1014.5
20260508145003 21 184 1.6 9.7 0.00 0.00 0.00 72 1014.3
20260508144502 20 183 1.6 9.7 0.00 0.00 0.00 72 1014.2
20260508143502 20 181 3.2 9.7 0.00 0.00 0.00 74 1014.2
20260508143003 20 185 3.2 11.3 0.00 0.00 0.00 73 1014.4
20260508142502 20 172 1.6 11.3 0.00 0.00 0.00 73 1014.5
20260508142003 20 166 1.6 8.0 0.00 0.00 0.00 75 1014.5
20260508141503 20 162 3.2 8.0 0.00 0.00 0.00 75 1014.6
20260508141003 20 161 3.2 8.0 0.00 0.00 0.00 76 1014.8
20260508140503 20 166 3.2 9.7 0.00 0.00 0.00 76 1014.7
20260508140003 19 160 1.6 9.7 0.00 0.00 0.00 76 1014.8
20260508135502 19 144 1.6 4.8 0.00 0.00 0.00 78 1014.8
20260508135003 18 151 1.6 8.0 0.00 0.00 0.00 79 1014.6
20260508134502 18 149 1.6 8.0 0.00 0.00 0.00 80 1014.5
20260508134003 18 152 0.0 6.4 0.00 0.00 0.00 81 1014.4
20260508133503 17 172 1.6 6.4 0.00 0.00 0.00 83 1014.5
20260508132502 17 155 1.6 4.8 0.00 0.00 0.00 84 1014.6
20260508132003 17 170 1.6 4.8 0.00 0.00 0.00 85 1014.7
20260508131503 16 174 1.6 4.8 0.00 0.00 0.00 86 1014.7
20260508131002 16 169 0.0 4.8 0.00 0.00 0.00 89 1014.9
20260508130503 16 0 0.0 0.0 0.00 0.00 0.00 91 1014.9
20260508130003 16 0 0.0 0.0 0.00 0.00 0.00 92 1015.1
20260508125503 16 0 0.0 0.0 0.00 0.00 0.00 91 1015.0
20260508125002 16 0 0.0 0.0 0.00 0.00 0.00 91 1014.9
20260508124502 15 0 0.0 0.0 0.00 0.00 0.00 91 1015.0
20260508123502 15 208 0.0 1.6 0.00 0.00 0.00 91 1014.8
20260508123003 15 208 0.0 1.6 0.00 0.00 0.00 92 1014.6
20260508122502 15 208 0.0 1.6 0.00 0.00 0.00 92 1014.6
20260508121503 15 208 0.0 1.6 0.00 0.00 0.00 92 1014.7
20260508121002 15 0 0.0 0.0 0.00 0.00 0.00 92 1014.9
20260508120503 15 0 0.0 0.0 0.00 0.00 0.00 92 1014.9
20260508120003 15 0 0.0 0.0 0.00 0.00 0.00 92 1014.7
20260508115503 15 0 0.0 0.0 0.00 0.00 0.00 92 1014.8
20260508114502 15 0 0.0 0.0 0.00 0.00 0.00 91 1014.9
20260508114003 15 0 0.0 0.0 0.00 0.00 0.00 91 1014.7
20260508113502 15 0 0.0 0.0 0.00 0.00 0.00 91 1015.0
20260508113002 15 0 0.0 0.0 0.00 0.00 0.00 91 1015.1
20260508112503 15 0 0.0 0.0 0.00 0.00 0.00 91 1015.1
20260508111503 15 0 0.0 0.0 0.00 0.00 0.00 92 1015.5
20260508111003 15 0 0.0 0.0 0.00 0.00 0.00 92 1015.7
20260508110503 15 0 0.0 0.0 0.00 0.00 0.00 92 1015.6
20260508110003 15 0 0.0 0.0 0.00 0.00 0.00 91 1015.2
20260508105504 15 0 0.0 0.0 0.00 0.00 0.00 91 1014.8
20260508105003 15 0 0.0 0.0 0.00 0.00 0.00 90 1014.6
20260508104002 15 190 0.0 3.2 0.00 0.00 0.00 90 1014.3
20260508103003 15 177 0.0 4.8 0.00 0.00 0.00 90 1013.8
20260508102503 15 178 1.6 4.8 0.00 0.00 0.00 91 1013.8
20260508101503 15 181 0.0 1.6 0.00 0.00 0.00 90 1013.8
20260508101003 15 0 0.0 0.0 0.00 0.00 0.00 90 1013.9
20260508100503 15 181 0.0 1.6 0.00 0.00 0.00 90 1014.2
20260508100003 15 179 0.0 3.2 0.00 0.00 0.00 89 1014.1
20260508095503 15 179 0.0 3.2 0.00 0.00 0.00 89 1013.9
20260508095003 15 181 0.0 1.6 0.00 0.00 0.00 89 1014.1
20260508094503 16 0 0.0 0.0 0.00 0.00 0.00 88 1014.1
20260508094004 16 181 0.0 1.6 0.00 0.00 0.00 88 1014.2
20260508093503 16 182 0.0 3.2 0.00 0.00 0.00 88 1014.1
20260508093003 16 178 0.0 3.2 0.00 0.00 0.00 89 1014.1
20260508092503 16 168 0.0 1.6 0.00 0.00 0.00 89 1014.0
20260508092003 16 171 0.0 3.2 0.00 0.00 0.00 89 1014.1
20260508091003 16 173 0.0 6.4 0.00 0.00 0.00 90 1014.2
20260508090003 16 145 0.0 3.2 0.00 0.00 0.00 90 1014.0
20260508085503 16 0 0.0 0.0 0.00 0.00 0.00 90 1014.0
20260508085003 15 0 0.0 0.0 0.00 0.00 0.00 89 1014.4
20260508084503 15 0 0.0 0.0 0.00 0.00 0.00 89 1014.6
20260508084003 15 0 0.0 0.0 0.00 0.00 0.00 89 1014.9
20260508083503 15 0 0.0 0.0 0.00 0.00 0.00 89 1015.0
20260508083003 15 0 0.0 0.0 0.00 0.00 0.00 89 1015.1
20260508082503 15 0 0.0 0.0 0.00 0.00 0.00 89 1015.3
20260508082003 16 0 0.0 0.0 0.00 0.00 0.00 89 1015.3
20260508081003 16 0 0.0 0.0 0.00 0.00 0.00 89 1015.4
20260508080502 16 0 0.0 0.0 0.00 0.00 0.00 89 1015.4
20260508080004 15 0 0.0 0.0 0.00 0.00 0.00 89 1015.6
20260508075503 15 0 0.0 0.0 0.00 0.00 0.00 90 1015.3
20260508075003 15 0 0.0 0.0 0.00 0.00 0.00 90 1015.3
20260508074503 15 0 0.0 0.0 0.00 0.00 0.00 89 1015.1
20260508074004 15 0 0.0 0.0 0.00 0.00 0.00 89 1015.1
20260508073503 15 0 0.0 0.0 0.00 0.00 0.00 89 1014.9
20260508073003 15 0 0.0 0.0 0.00 0.00 0.00 89 1014.9
20260508072503 15 0 0.0 0.0 0.00 0.00 0.00 89 1015.0
20260508072003 15 0 0.0 0.0 0.00 0.00 0.00 89 1014.9
20260508071503 15 0 0.0 0.0 0.00 0.00 0.00 89 1015.0
20260508071003 15 0 0.0 0.0 0.00 0.00 0.00 89 1015.1
20260508070503 15 0 0.0 0.0 0.00 0.00 0.00 89 1015.2
20260508065503 15 0 0.0 0.0 0.00 0.00 0.00 89 1015.3
20260508065003 15 0 0.0 0.0 0.00 0.00 0.00 88 1015.4
20260508064003 15 0 0.0 0.0 0.00 0.00 0.00 88 1015.7
20260508063003 15 0 0.0 0.0 0.00 0.00 0.00 88 1015.8
20260508062503 15 0 0.0 0.0 0.00 0.00 0.00 88 1015.6
20260508062003 15 0 0.0 0.0 0.00 0.00 0.00 88 1015.7
20260508061503 15 0 0.0 0.0 0.00 0.00 0.00 88 1015.8
20260508061004 15 0 0.0 0.0 0.00 0.00 0.00 87 1015.7
20260508060503 15 0 0.0 0.0 0.00 0.00 0.00 87 1015.8
20260508060003 15 0 0.0 0.0 0.00 0.00 0.00 87 1015.8
20260508055504 15 0 0.0 0.0 0.00 0.00 0.00 87 1015.7
20260508054004 15 0 0.0 0.0 0.00 0.00 0.00 87 1015.7
20260508053004 15 0 0.0 0.0 0.00 0.00 0.00 87 1015.8
20260508052503 15 0 0.0 0.0 0.00 0.00 0.00 87 1015.8
20260508052003 15 0 0.0 0.0 0.00 0.00 0.00 86 1015.8
20260508051504 15 0 0.0 0.0 0.00 0.00 0.00 86 1015.7
20260508051003 15 0 0.0 0.0 0.00 0.00 0.00 86 1015.7
20260508050004 15 0 0.0 0.0 0.00 0.00 0.00 85 1015.8
20260508045503 15 0 0.0 0.0 0.00 0.00 0.00 85 1015.8
20260508045004 15 0 0.0 0.0 0.00 0.00 0.00 85 1016.0
20260508044501 15 0 0.0 0.0 0.00 0.00 0.00 85 1015.9
20260508044002 15 0 0.0 0.0 0.00 0.00 0.00 86 1015.9
20260508043501 15 0 0.0 0.0 0.00 0.00 0.00 84 1015.7
20260508042501 15 0 0.0 0.0 0.00 0.00 0.00 84 1015.7
20260508042001 15 0 0.0 0.0 0.00 0.00 0.00 83 1015.7
20260508041501 15 0 0.0 0.0 0.00 0.00 0.00 84 1015.7
20260508041001 15 0 0.0 0.0 0.00 0.00 0.00 84 1015.7
20260508040001 15 0 0.0 0.0 0.00 0.00 0.00 83 1015.5
20260508035002 16 0 0.0 0.0 0.00 0.00 0.00 82 1015.4
20260508033501 16 0 0.0 0.0 0.00 0.00 0.00 82 1015.4
20260508033002 16 0 0.0 0.0 0.00 0.00 0.00 83 1015.3
20260508032502 16 0 0.0 0.0 0.00 0.00 0.00 82 1015.3
20260508032001 16 0 0.0 0.0 0.00 0.00 0.00 82 1015.4
20260508031502 16 0 0.0 0.0 0.00 0.00 0.00 82 1015.4
20260508031001 16 0 0.0 0.0 0.00 0.00 0.00 81 1015.5
20260508030502 16 0 0.0 0.0 0.00 0.00 0.00 81 1015.4
20260508030001 16 0 0.0 0.0 0.00 0.00 0.00 80 1015.4
20260508025502 16 0 0.0 0.0 0.00 0.00 0.00 80 1015.4
20260508025001 16 0 0.0 0.0 0.00 0.00 0.00 80 1015.3
20260508024502 16 0 0.0 0.0 0.00 0.00 0.00 80 1015.3
20260508024001 16 0 0.0 0.0 0.00 0.00 0.00 79 1015.4
20260508022502 16 0 0.0 0.0 0.00 0.00 0.00 78 1015.2
20260508022003 16 0 0.0 0.0 0.00 0.00 0.00 77 1015.2
20260508021501 17 0 0.0 0.0 0.00 0.00 0.00 77 1015.1
20260508021002 17 0 0.0 0.0 0.00 0.00 0.00 77 1015.0
20260508020501 17 0 0.0 0.0 0.00 0.00 0.00 77 1014.8
20260508020002 17 0 0.0 0.0 0.00 0.00 0.00 77 1014.9
20260508015501 17 0 0.0 0.0 0.00 0.00 0.00 76 1014.9
20260508015002 17 0 0.0 0.0 0.00 0.00 0.00 76 1014.9
20260508014501 17 0 0.0 0.0 0.00 0.00 0.00 75 1015.0
20260508014001 17 0 0.0 0.0 0.00 0.00 0.00 75 1015.1
20260508013502 17 0 0.0 0.0 0.00 0.00 0.00 75 1015.1
20260508013001 18 0 0.0 0.0 0.00 0.00 0.00 75 1014.9
20260508012502 18 0 0.0 0.0 0.00 0.00 0.00 74 1015.1
20260508012001 18 0 0.0 0.0 0.00 0.00 0.00 74 1015.0
20260508011502 18 0 0.0 0.0 0.00 0.00 0.00 74 1014.9
20260508010502 18 0 0.0 0.0 0.00 0.00 0.00 73 1015.0
20260508010002 18 0 0.0 0.0 0.00 0.00 0.00 74 1014.9
20260508005502 18 0 0.0 0.0 0.00 0.00 0.00 74 1014.9
20260508005001 19 171 0.0 1.6 0.00 0.00 0.00 73 1014.8
20260508004502 19 172 0.0 1.6 0.00 0.00 0.00 73 1014.9
20260508004001 19 168 0.0 1.6 0.00 0.00 0.00 73 1015.0
20260508003002 20 163 0.0 1.6 0.00 0.00 0.00 72 1015.0
20260508002502 20 155 0.0 1.6 0.00 0.00 0.00 72 1015.1
20260508002001 20 155 0.0 1.6 0.00 0.00 0.00 71 1015.1
20260508001502 20 155 0.0 1.6 0.00 0.00 0.00 71 1015.0
20260508001001 20 176 0.0 4.8 0.00 0.00 0.00 70 1015.0
20260508000502 20 189 1.6 6.4 0.00 0.00 0.00 69 1015.1
20260508000002 20 189 1.6 6.4 0.00 0.00 0.00 69 1015.1
20260507235501 20 181 0.0 6.4 0.00 0.00 0.00 68 1015.0
20260507235001 20 183 1.6 8.0 0.00 0.00 0.00 69 1015.0
20260507234502 20 187 3.2 8.0 0.00 0.00 0.00 68 1015.0
20260507234001 20 184 3.2 8.0 0.00 0.00 0.00 67 1015.0
20260507233502 20 174 1.6 8.0 0.00 0.00 0.00 68 1015.1
20260507232002 20 171 3.2 8.0 0.00 0.00 0.00 67 1015.2
20260507231502 21 182 3.2 8.0 0.00 0.00 0.00 66 1015.3
20260507231002 21 190 1.6 8.0 0.00 0.00 0.00 66 1015.2
20260507230502 21 188 1.6 8.0 0.00 0.00 0.00 66 1015.3
20260507230002 21 169 1.6 9.7 0.00 0.00 0.00 67 1015.2
20260507225502 21 164 1.6 9.7 0.00 0.00 0.00 66 1015.3
20260507225002 21 187 1.6 9.7 0.00 0.00 0.00 66 1015.3
20260507224002 21 171 3.2 8.0 0.00 0.00 0.00 66 1015.3
20260507223502 21 161 1.6 8.0 0.00 0.00 0.00 65 1015.4
20260507223001 21 174 3.2 9.7 0.00 0.00 0.00 65 1015.3
20260507222502 21 181 1.6 9.7 0.00 0.00 0.00 65 1015.4
20260507222001 22 175 1.6 8.0 0.00 0.00 0.00 65 1015.2
20260507221502 22 178 3.2 9.7 0.00 0.00 0.00 64 1015.3
20260507221002 22 175 3.2 9.7 0.00 0.00 0.00 63 1015.4
20260507220502 22 174 1.6 8.0 0.00 0.00 0.00 63 1015.4
20260507220002 22 177 1.6 6.4 0.00 0.00 0.00 63 1015.4
20260507215502 22 175 1.6 8.0 0.00 0.00 0.00 62 1015.3
20260507215002 22 167 1.6 8.0 0.00 0.00 0.00 60 1015.3
20260507214502 22 167 1.6 6.4 0.00 0.00 0.00 61 1015.4
20260507214002 23 175 1.6 4.8 0.00 0.00 0.00 60 1015.6
20260507213502 23 183 0.0 4.8 0.00 0.00 0.00 58 1015.6
20260507213002 23 174 0.0 3.2 0.00 0.00 0.00 59 1015.7
20260507212002 23 170 0.0 4.8 0.00 0.00 0.00 59 1015.8
20260507211502 23 131 0.0 3.2 0.00 0.00 0.00 59 1015.9
20260507211003 23 131 0.0 1.6 0.00 0.00 0.00 60 1015.9
20260507210502 23 130 0.0 1.6 0.00 0.00 0.00 58 1015.8
20260507205502 23 138 0.0 1.6 0.00 0.00 0.00 60 1015.9
20260507205002 23 140 0.0 3.2 0.00 0.00 0.00 58 1015.9
20260507204502 23 138 0.0 3.2 0.00 0.00 0.00 57 1015.8
20260507204002 23 139 0.0 3.2 0.00 0.00 0.00 61 1015.8
20260507203502 23 139 0.0 1.6 0.00 0.00 0.00 59 1015.9
20260507202003 23 146 0.0 1.6 0.00 0.00 0.00 58 1016.3
20260507201502 23 181 0.0 1.6 0.00 0.00 0.00 58 1016.3
20260507201001 23 123 0.0 3.2 0.00 0.00 0.00 59 1016.6
20260507200002 23 89 0.0 4.8 0.00 0.00 0.00 60 1016.6
20260507195502 23 98 0.0 4.8 0.00 0.00 0.00 59 1016.6
20260507195002 23 186 0.0 3.2 0.00 0.00 0.00 55 1016.7
20260507194502 23 98 0.0 3.2 0.00 0.00 0.00 56 1016.8
20260507194002 23 90 0.0 4.8 0.00 0.00 0.00 58 1016.8
20260507193502 23 122 0.0 4.8 0.00 0.00 0.00 60 1016.9
20260507193002 23 104 1.6 4.8 0.00 0.00 0.00 60 1017.0
20260507192502 23 57 1.6 4.8 0.00 0.00 0.00 59 1017.1
20260507192002 22 45 1.6 4.8 0.00 0.00 0.00 60 1017.1
20260507191502 22 58 0.0 4.8 0.00 0.00 0.00 59 1017.1
20260507191002 22 78 0.0 4.8 0.00 0.00 0.00 58 1017.1
20260507190502 22 111 1.6 4.8 0.00 0.00 0.00 60 1017.2
20260507190003 22 106 1.6 4.8 0.00 0.00 0.00 59 1017.3
20260507185502 22 82 1.6 12.9 0.00 0.00 0.00 59 1017.3
20260507184502 22 88 0.0 6.4 0.00 0.00 0.00 57 1017.2
20260507184002 22 106 0.0 4.8 0.00 0.00 0.00 60 1017.3
20260507183503 22 99 0.0 4.8 0.00 0.00 0.00 61 1017.5
20260507183003 22 112 0.0 4.8 0.00 0.00 0.00 59 1017.5
20260507182502 22 96 1.6 4.8 0.00 0.00 0.00 63 1017.6
20260507182002 21 90 1.6 4.8 0.00 0.00 0.00 61 1017.7
20260507181502 21 100 0.0 4.8 0.00 0.00 0.00 60 1017.7
20260507180003 21 50 1.6 4.8 0.00 0.00 0.00 60 1017.9
20260507175502 21 67 1.6 4.8 0.00 0.00 0.00 60 1017.9
20260507175003 21 99 0.0 4.8 0.00 0.00 0.00 62 1017.9
20260507174502 21 126 0.0 4.8 0.00 0.00 0.00 63 1018.1
20260507174002 21 136 0.0 3.2 0.00 0.00 0.00 62 1018.3
20260507173502 21 130 0.0 3.2 0.00 0.00 0.00 62 1018.3
20260507173002 21 138 0.0 3.2 0.00 0.00 0.00 64 1018.4
20260507172502 21 169 0.0 3.2 0.00 0.00 0.00 64 1018.5
20260507172002 21 136 0.0 3.2 0.00 0.00 0.00 64 1018.7
20260507171502 20 110 0.0 3.2 0.00 0.00 0.00 64 1019.0
20260507171003 21 108 0.0 3.2 0.00 0.00 0.00 64 1019.3
20260507170003 21 115 0.0 3.2 0.00 0.00 0.00 65 1019.4
20260507165002 20 147 0.0 3.2 0.00 0.00 0.00 65 1019.5